owner,sensor,date,latitude,longitude,vertical_datum,sea_water_practical_salinity,qcFlag 
WAVCIS,ioos:station:WAVCIS:CSI16:1,2010-04-01T00:00:00Z,29.4012,-89.0355,1.0,24.281,11111222 
WAVCIS,ioos:station:WAVCIS:CSI16:1,2010-04-01T00:15:00Z,29.4012,-89.0355,1.0,25.336,11111222 
WAVCIS,ioos:station:WAVCIS:CSI16:1,2010-04-01T00:30:00Z,29.4012,-89.0355,1.0,25.835,11111222 
WAVCIS,ioos:station:WAVCIS:CSI16:1,2010-04-01T00:45:00Z,29.4012,-89.0355,1.0,26.492,11111222 
WAVCIS,ioos:station:WAVCIS:CSI16:1,2010-04-01T01:00:00Z,29.4012,-89.0355,1.0,16.555,11111222 
WAVCIS,ioos:station:WAVCIS:CSI16:1,2010-04-01T01:15:00Z,29.4012,-89.0355,1.0,10.898,11111222 
WAVCIS,ioos:station:WAVCIS:CSI16:1,2010-04-01T01:30:00Z,29.4012,-89.0355,1.0,9.494,11111222 
WAVCIS,ioos:station:WAVCIS:CSI16:1,2010-04-01T01:45:00Z,29.4012,-89.0355,1.0,8.613,11111222 
WAVCIS,ioos:station:WAVCIS:CSI16:1,2010-04-01T02:00:00Z,29.4012,-89.0355,1.0,10.335,11111222 
WAVCIS,ioos:station:WAVCIS:CSI16:1,2010-04-01T02:15:00Z,29.4012,-89.0355,1.0,23.062,11111222 
WAVCIS,ioos:station:WAVCIS:CSI16:1,2010-04-01T02:30:00Z,29.4012,-89.0355,1.0,22.323,11111222 
WAVCIS,ioos:station:WAVCIS:CSI16:1,2010-04-01T02:45:00Z,29.4012,-89.0355,1.0,24.483,11111222 
WAVCIS,ioos:station:WAVCIS:CSI16:1,2010-04-01T03:00:00Z,29.4012,-89.0355,1.0,16.006,11111222 
WAVCIS,ioos:station:WAVCIS:CSI16:1,2010-04-01T03:15:00Z,29.4012,-89.0355,1.0,15.266,11111222 
WAVCIS,ioos:station:WAVCIS:CSI16:1,2010-04-01T03:30:00Z,29.4012,-89.0355,1.0,19.949,11111222 
WAVCIS,ioos:station:WAVCIS:CSI16:1,2010-04-01T03:45:00Z,29.4012,-89.0355,1.0,21.165,11111222 
WAVCIS,ioos:station:WAVCIS:CSI16:1,2010-04-01T04:00:00Z,29.4012,-89.0355,1.0,22.815,11111222 
WAVCIS,ioos:station:WAVCIS:CSI16:1,2010-04-01T04:15:00Z,29.4012,-89.0355,1.0,23.662,11111222 
WAVCIS,ioos:station:WAVCIS:CSI16:1,2010-04-01T04:30:00Z,29.4012,-89.0355,1.0,25.725,11111222 
WAVCIS,ioos:station:WAVCIS:CSI16:1,2010-04-01T04:45:00Z,29.4012,-89.0355,1.0,26.184,11111222 
WAVCIS,ioos:station:WAVCIS:CSI16:1,2010-04-01T05:00:00Z,29.4012,-89.0355,1.0,26.795,11111222 
WAVCIS,ioos:station:WAVCIS:CSI16:1,2010-04-01T05:15:00Z,29.4012,-89.0355,1.0,26.35,11111222 
WAVCIS,ioos:station:WAVCIS:CSI16:1,2010-04-01T05:30:00Z,29.4012,-89.0355,1.0,25.806,11111222 
WAVCIS,ioos:station:WAVCIS:CSI16:1,2010-04-01T05:45:00Z,29.4012,-89.0355,1.0,24.427,11111222 
WAVCIS,ioos:station:WAVCIS:CSI16:1,2010-04-01T06:00:00Z,29.4012,-89.0355,1.0,24.627,11111222 
WAVCIS,ioos:station:WAVCIS:CSI16:1,2010-04-01T06:15:00Z,29.4012,-89.0355,1.0,25.37,11111222 
WAVCIS,ioos:station:WAVCIS:CSI16:1,2010-04-01T06:30:00Z,29.4012,-89.0355,1.0,27.018,11111222 
WAVCIS,ioos:station:WAVCIS:CSI16:1,2010-04-01T06:45:00Z,29.4012,-89.0355,1.0,27.878,11111222 
WAVCIS,ioos:station:WAVCIS:CSI16:1,2010-04-01T07:00:00Z,29.4012,-89.0355,1.0,26.618,11111222 
WAVCIS,ioos:station:WAVCIS:CSI16:1,2010-04-01T07:15:00Z,29.4012,-89.0355,1.0,27.195,11111222 
WAVCIS,ioos:station:WAVCIS:CSI16:1,2010-04-01T07:30:00Z,29.4012,-89.0355,1.0,26.539,11111222 
WAVCIS,ioos:station:WAVCIS:CSI16:1,2010-04-01T07:45:00Z,29.4012,-89.0355,1.0,26.541,11111222 
WAVCIS,ioos:station:WAVCIS:CSI16:1,2010-04-01T08:00:00Z,29.4012,-89.0355,1.0,26.808,11111222 
WAVCIS,ioos:station:WAVCIS:CSI16:1,2010-04-01T08:15:00Z,29.4012,-89.0355,1.0,26.584,11111222 
WAVCIS,ioos:station:WAVCIS:CSI16:1,2010-04-01T08:30:00Z,29.4012,-89.0355,1.0,26.733,11111222 
WAVCIS,ioos:station:WAVCIS:CSI16:1,2010-04-01T08:45:00Z,29.4012,-89.0355,1.0,27.638,11111222 
WAVCIS,ioos:station:WAVCIS:CSI16:1,2010-04-01T09:00:00Z,29.4012,-89.0355,1.0,28.793,11111222 
WAVCIS,ioos:station:WAVCIS:CSI16:1,2010-04-01T09:15:00Z,29.4012,-89.0355,1.0,29.558,11111222 
WAVCIS,ioos:station:WAVCIS:CSI16:1,2010-04-01T09:30:00Z,29.4012,-89.0355,1.0,30.229,11111222 
WAVCIS,ioos:station:WAVCIS:CSI16:1,2010-04-01T09:45:00Z,29.4012,-89.0355,1.0,30.602,11111222 
WAVCIS,ioos:station:WAVCIS:CSI16:1,2010-04-01T10:00:00Z,29.4012,-89.0355,1.0,28.266,11111222 
WAVCIS,ioos:station:WAVCIS:CSI16:1,2010-04-01T10:15:00Z,29.4012,-89.0355,1.0,30.706,11111222 
WAVCIS,ioos:station:WAVCIS:CSI16:1,2010-04-01T10:30:00Z,29.4012,-89.0355,1.0,30.013,11111222 
WAVCIS,ioos:station:WAVCIS:CSI16:1,2010-04-01T10:45:00Z,29.4012,-89.0355,1.0,30.869,11111222 
WAVCIS,ioos:station:WAVCIS:CSI16:1,2010-04-01T11:00:00Z,29.4012,-89.0355,1.0,30.694,11111222 
WAVCIS,ioos:station:WAVCIS:CSI16:1,2010-04-01T11:15:00Z,29.4012,-89.0355,1.0,30.638,11111222 
WAVCIS,ioos:station:WAVCIS:CSI16:1,2010-04-01T11:30:00Z,29.4012,-89.0355,1.0,30.388,11111222 
WAVCIS,ioos:station:WAVCIS:CSI16:1,2010-04-01T11:45:00Z,29.4012,-89.0355,1.0,27.283,11111222 
WAVCIS,ioos:station:WAVCIS:CSI16:1,2010-04-01T12:00:00Z,29.4012,-89.0355,1.0,27.805,11111222 
WAVCIS,ioos:station:WAVCIS:CSI16:1,2010-04-01T12:15:00Z,29.4012,-89.0355,1.0,28.427,11111222 
WAVCIS,ioos:station:WAVCIS:CSI16:1,2010-04-01T12:30:00Z,29.4012,-89.0355,1.0,28.405,11111222 
WAVCIS,ioos:station:WAVCIS:CSI16:1,2010-04-01T12:45:00Z,29.4012,-89.0355,1.0,29.094,11111222 
WAVCIS,ioos:station:WAVCIS:CSI16:1,2010-04-01T13:00:00Z,29.4012,-89.0355,1.0,31.273,11111222 
WAVCIS,ioos:station:WAVCIS:CSI16:1,2010-04-01T13:15:00Z,29.4012,-89.0355,1.0,30.911,11111222 
WAVCIS,ioos:station:WAVCIS:CSI16:1,2010-04-01T13:30:00Z,29.4012,-89.0355,1.0,31.472,11111222 
WAVCIS,ioos:station:WAVCIS:CSI16:1,2010-04-01T13:45:00Z,29.4012,-89.0355,1.0,27.399,11111222 
WAVCIS,ioos:station:WAVCIS:CSI16:1,2010-04-01T14:00:00Z,29.4012,-89.0355,1.0,29.395,11111222 
WAVCIS,ioos:station:WAVCIS:CSI16:1,2010-04-01T14:15:00Z,29.4012,-89.0355,1.0,27.948,11111222 
WAVCIS,ioos:station:WAVCIS:CSI16:1,2010-04-01T14:30:00Z,29.4012,-89.0355,1.0,28.011,11111222 
WAVCIS,ioos:station:WAVCIS:CSI16:1,2010-04-01T14:45:00Z,29.4012,-89.0355,1.0,30.587,11111222 
WAVCIS,ioos:station:WAVCIS:CSI16:1,2010-04-01T15:00:00Z,29.4012,-89.0355,1.0,32.733,11111222 
WAVCIS,ioos:station:WAVCIS:CSI16:1,2010-04-01T15:15:00Z,29.4012,-89.0355,1.0,31.462,11111222 
WAVCIS,ioos:station:WAVCIS:CSI16:1,2010-04-01T15:30:00Z,29.4012,-89.0355,1.0,32.232,11111222 
WAVCIS,ioos:station:WAVCIS:CSI16:1,2010-04-01T15:45:00Z,29.4012,-89.0355,1.0,33.455,11111222 
WAVCIS,ioos:station:WAVCIS:CSI16:1,2010-04-01T16:00:00Z,29.4012,-89.0355,1.0,33.35,11111222 
WAVCIS,ioos:station:WAVCIS:CSI16:1,2010-04-01T16:15:00Z,29.4012,-89.0355,1.0,33.951,11111222 
WAVCIS,ioos:station:WAVCIS:CSI16:1,2010-04-01T16:30:00Z,29.4012,-89.0355,1.0,33.516,11111222 
WAVCIS,ioos:station:WAVCIS:CSI16:1,2010-04-01T16:45:00Z,29.4012,-89.0355,1.0,33.943,11111222 
WAVCIS,ioos:station:WAVCIS:CSI16:1,2010-04-01T17:00:00Z,29.4012,-89.0355,1.0,31.572,11111222 
WAVCIS,ioos:station:WAVCIS:CSI16:1,2010-04-01T17:15:00Z,29.4012,-89.0355,1.0,29.231,11111222 
WAVCIS,ioos:station:WAVCIS:CSI16:1,2010-04-01T17:30:00Z,29.4012,-89.0355,1.0,30.061,11111222 
WAVCIS,ioos:station:WAVCIS:CSI16:1,2010-04-01T17:45:00Z,29.4012,-89.0355,1.0,29.111,11111222 
WAVCIS,ioos:station:WAVCIS:CSI16:1,2010-04-01T18:00:00Z,29.4012,-89.0355,1.0,29.559,11111222 
WAVCIS,ioos:station:WAVCIS:CSI16:1,2010-04-01T18:15:00Z,29.4012,-89.0355,1.0,30.062,11111222 
WAVCIS,ioos:station:WAVCIS:CSI16:1,2010-04-01T18:30:00Z,29.4012,-89.0355,1.0,29.346,11111222 
WAVCIS,ioos:station:WAVCIS:CSI16:1,2010-04-01T18:45:00Z,29.4012,-89.0355,1.0,30.47,11111222 
WAVCIS,ioos:station:WAVCIS:CSI16:1,2010-04-01T19:00:00Z,29.4012,-89.0355,1.0,28.2,11111222 
WAVCIS,ioos:station:WAVCIS:CSI16:1,2010-04-01T19:15:00Z,29.4012,-89.0355,1.0,29.83,11111222 
WAVCIS,ioos:station:WAVCIS:CSI16:1,2010-04-01T19:30:00Z,29.4012,-89.0355,1.0,29.892,11111222 
WAVCIS,ioos:station:WAVCIS:CSI16:1,2010-04-01T19:45:00Z,29.4012,-89.0355,1.0,30.224,11111222 
WAVCIS,ioos:station:WAVCIS:CSI16:1,2010-04-01T20:00:00Z,29.4012,-89.0355,1.0,30.113,11111222 
WAVCIS,ioos:station:WAVCIS:CSI16:1,2010-04-01T20:15:00Z,29.4012,-89.0355,1.0,29.55,11111222 
WAVCIS,ioos:station:WAVCIS:CSI16:1,2010-04-01T20:30:00Z,29.4012,-89.0355,1.0,29.569,11111222 
WAVCIS,ioos:station:WAVCIS:CSI16:1,2010-04-01T20:45:00Z,29.4012,-89.0355,1.0,28.775,11111222 
WAVCIS,ioos:station:WAVCIS:CSI16:1,2010-04-01T21:00:00Z,29.4012,-89.0355,1.0,26.414,11111222 
WAVCIS,ioos:station:WAVCIS:CSI16:1,2010-04-01T21:15:00Z,29.4012,-89.0355,1.0,28.238,11111222 
WAVCIS,ioos:station:WAVCIS:CSI16:1,2010-04-01T21:30:00Z,29.4012,-89.0355,1.0,27.789,11111222 
WAVCIS,ioos:station:WAVCIS:CSI16:1,2010-04-01T21:45:00Z,29.4012,-89.0355,1.0,26.743,11111222 
WAVCIS,ioos:station:WAVCIS:CSI16:1,2010-04-01T22:00:00Z,29.4012,-89.0355,1.0,27.293,11111222 
WAVCIS,ioos:station:WAVCIS:CSI16:1,2010-04-01T22:15:00Z,29.4012,-89.0355,1.0,25.392,11111222 
WAVCIS,ioos:station:WAVCIS:CSI16:1,2010-04-01T22:30:00Z,29.4012,-89.0355,1.0,26.403,11111222 
WAVCIS,ioos:station:WAVCIS:CSI16:1,2010-04-01T22:45:00Z,29.4012,-89.0355,1.0,26.71,11111222 
WAVCIS,ioos:station:WAVCIS:CSI16:1,2010-04-01T23:00:00Z,29.4012,-89.0355,1.0,27.796,11111222 
WAVCIS,ioos:station:WAVCIS:CSI16:1,2010-04-01T23:15:00Z,29.4012,-89.0355,1.0,26.278,11111222 
WAVCIS,ioos:station:WAVCIS:CSI16:1,2010-04-01T23:30:00Z,29.4012,-89.0355,1.0,28.219,11111222 
WAVCIS,ioos:station:WAVCIS:CSI16:1,2010-04-01T23:45:00Z,29.4012,-89.0355,1.0,24.43,11111222 
WAVCIS,ioos:station:WAVCIS:CSI16:1,2010-04-02T00:00:00Z,29.4012,-89.0355,1.0,28.087,11111222 
WAVCIS,ioos:station:WAVCIS:CSI16:1,2010-04-02T00:15:00Z,29.4012,-89.0355,1.0,28.411,11111222 
WAVCIS,ioos:station:WAVCIS:CSI16:1,2010-04-02T00:30:00Z,29.4012,-89.0355,1.0,27.519,11111222 
WAVCIS,ioos:station:WAVCIS:CSI16:1,2010-04-02T00:45:00Z,29.4012,-89.0355,1.0,24.402,11111222 
WAVCIS,ioos:station:WAVCIS:CSI16:1,2010-04-02T01:00:00Z,29.4012,-89.0355,1.0,22.188,11111222 
WAVCIS,ioos:station:WAVCIS:CSI16:1,2010-04-02T01:15:00Z,29.4012,-89.0355,1.0,19.403,11111222 
WAVCIS,ioos:station:WAVCIS:CSI16:1,2010-04-02T01:30:00Z,29.4012,-89.0355,1.0,18.234,11111222 
WAVCIS,ioos:station:WAVCIS:CSI16:1,2010-04-02T01:45:00Z,29.4012,-89.0355,1.0,15.623,11111222 
WAVCIS,ioos:station:WAVCIS:CSI16:1,2010-04-02T02:00:00Z,29.4012,-89.0355,1.0,15.075,11111222 
WAVCIS,ioos:station:WAVCIS:CSI16:1,2010-04-02T02:15:00Z,29.4012,-89.0355,1.0,14.751,11111222 
WAVCIS,ioos:station:WAVCIS:CSI16:1,2010-04-02T02:30:00Z,29.4012,-89.0355,1.0,14.442,11111222 
WAVCIS,ioos:station:WAVCIS:CSI16:1,2010-04-02T02:45:00Z,29.4012,-89.0355,1.0,12.767,11111222 
WAVCIS,ioos:station:WAVCIS:CSI16:1,2010-04-02T03:00:00Z,29.4012,-89.0355,1.0,12.331,11111222 
WAVCIS,ioos:station:WAVCIS:CSI16:1,2010-04-02T03:15:00Z,29.4012,-89.0355,1.0,13.883,11111222 
WAVCIS,ioos:station:WAVCIS:CSI16:1,2010-04-02T03:30:00Z,29.4012,-89.0355,1.0,13.659,11111222 
WAVCIS,ioos:station:WAVCIS:CSI16:1,2010-04-02T03:45:00Z,29.4012,-89.0355,1.0,12.918,11111222 
WAVCIS,ioos:station:WAVCIS:CSI16:1,2010-04-02T04:00:00Z,29.4012,-89.0355,1.0,14.801,11111222 
WAVCIS,ioos:station:WAVCIS:CSI16:1,2010-04-02T04:15:00Z,29.4012,-89.0355,1.0,14.498,11111222 
WAVCIS,ioos:station:WAVCIS:CSI16:1,2010-04-02T04:30:00Z,29.4012,-89.0355,1.0,16.672,11111222 
WAVCIS,ioos:station:WAVCIS:CSI16:1,2010-04-02T04:45:00Z,29.4012,-89.0355,1.0,15.363,11111222 
WAVCIS,ioos:station:WAVCIS:CSI16:1,2010-04-02T05:00:00Z,29.4012,-89.0355,1.0,15.087,11111222 
WAVCIS,ioos:station:WAVCIS:CSI16:1,2010-04-02T05:15:00Z,29.4012,-89.0355,1.0,16.213,11111222 
WAVCIS,ioos:station:WAVCIS:CSI16:1,2010-04-02T05:30:00Z,29.4012,-89.0355,1.0,17.333,11111222 
WAVCIS,ioos:station:WAVCIS:CSI16:1,2010-04-02T05:45:00Z,29.4012,-89.0355,1.0,19.559,11111222 
WAVCIS,ioos:station:WAVCIS:CSI16:1,2010-04-02T06:00:00Z,29.4012,-89.0355,1.0,20.304,11111222 
WAVCIS,ioos:station:WAVCIS:CSI16:1,2010-04-02T06:15:00Z,29.4012,-89.0355,1.0,19.784,11111222 
WAVCIS,ioos:station:WAVCIS:CSI16:1,2010-04-02T06:30:00Z,29.4012,-89.0355,1.0,20.534,11111222 
WAVCIS,ioos:station:WAVCIS:CSI16:1,2010-04-02T06:45:00Z,29.4012,-89.0355,1.0,19.267,11111222 
WAVCIS,ioos:station:WAVCIS:CSI16:1,2010-04-02T07:00:00Z,29.4012,-89.0355,1.0,17.518,11111222 
WAVCIS,ioos:station:WAVCIS:CSI16:1,2010-04-02T07:15:00Z,29.4012,-89.0355,1.0,22.089,11111222 
WAVCIS,ioos:station:WAVCIS:CSI16:1,2010-04-02T07:30:00Z,29.4012,-89.0355,1.0,18.721,11111222 
WAVCIS,ioos:station:WAVCIS:CSI16:1,2010-04-02T07:45:00Z,29.4012,-89.0355,1.0,19.433,11111222 
WAVCIS,ioos:station:WAVCIS:CSI16:1,2010-04-02T08:00:00Z,29.4012,-89.0355,1.0,16.11,11111222 
WAVCIS,ioos:station:WAVCIS:CSI16:1,2010-04-02T08:15:00Z,29.4012,-89.0355,1.0,18.559,11111222 
WAVCIS,ioos:station:WAVCIS:CSI16:1,2010-04-02T08:30:00Z,29.4012,-89.0355,1.0,23.909,11111222 
WAVCIS,ioos:station:WAVCIS:CSI16:1,2010-04-02T08:45:00Z,29.4012,-89.0355,1.0,17.83,11111222 
WAVCIS,ioos:station:WAVCIS:CSI16:1,2010-04-02T09:00:00Z,29.4012,-89.0355,1.0,21.253,11111222 
WAVCIS,ioos:station:WAVCIS:CSI16:1,2010-04-02T09:15:00Z,29.4012,-89.0355,1.0,22.118,11111222 
WAVCIS,ioos:station:WAVCIS:CSI16:1,2010-04-02T09:30:00Z,29.4012,-89.0355,1.0,15.361,11111222 
WAVCIS,ioos:station:WAVCIS:CSI16:1,2010-04-02T09:45:00Z,29.4012,-89.0355,1.0,17.223,11111222 
WAVCIS,ioos:station:WAVCIS:CSI16:1,2010-04-02T10:00:00Z,29.4012,-89.0355,1.0,20.188,11111222 
WAVCIS,ioos:station:WAVCIS:CSI16:1,2010-04-02T10:15:00Z,29.4012,-89.0355,1.0,15.597,11111222 
WAVCIS,ioos:station:WAVCIS:CSI16:1,2010-04-02T10:30:00Z,29.4012,-89.0355,1.0,14.599,11111222 
WAVCIS,ioos:station:WAVCIS:CSI16:1,2010-04-02T10:45:00Z,29.4012,-89.0355,1.0,13.331,11111222 
WAVCIS,ioos:station:WAVCIS:CSI16:1,2010-04-02T11:00:00Z,29.4012,-89.0355,1.0,13.818,11111222 
WAVCIS,ioos:station:WAVCIS:CSI16:1,2010-04-02T11:15:00Z,29.4012,-89.0355,1.0,12.893,11111222 
WAVCIS,ioos:station:WAVCIS:CSI16:1,2010-04-02T11:30:00Z,29.4012,-89.0355,1.0,13.442,11111222 
WAVCIS,ioos:station:WAVCIS:CSI16:1,2010-04-02T11:45:00Z,29.4012,-89.0355,1.0,13.593,11111222 
WAVCIS,ioos:station:WAVCIS:CSI16:1,2010-04-02T12:00:00Z,29.4012,-89.0355,1.0,15.809,11111222 
WAVCIS,ioos:station:WAVCIS:CSI16:1,2010-04-02T12:15:00Z,29.4012,-89.0355,1.0,15.527,11111222 
WAVCIS,ioos:station:WAVCIS:CSI16:1,2010-04-02T12:30:00Z,29.4012,-89.0355,1.0,22.619,11111222 
WAVCIS,ioos:station:WAVCIS:CSI16:1,2010-04-02T12:45:00Z,29.4012,-89.0355,1.0,25.242,11111222 
WAVCIS,ioos:station:WAVCIS:CSI16:1,2010-04-02T13:00:00Z,29.4012,-89.0355,1.0,25.104,11111222 
WAVCIS,ioos:station:WAVCIS:CSI16:1,2010-04-02T13:15:00Z,29.4012,-89.0355,1.0,25.231,11111222 
WAVCIS,ioos:station:WAVCIS:CSI16:1,2010-04-02T13:30:00Z,29.4012,-89.0355,1.0,25.393,11111222 
WAVCIS,ioos:station:WAVCIS:CSI16:1,2010-04-02T13:45:00Z,29.4012,-89.0355,1.0,25.819,11111222 
WAVCIS,ioos:station:WAVCIS:CSI16:1,2010-04-02T14:00:00Z,29.4012,-89.0355,1.0,25.808,11111222 
WAVCIS,ioos:station:WAVCIS:CSI16:1,2010-04-02T14:15:00Z,29.4012,-89.0355,1.0,25.935,11111222 
WAVCIS,ioos:station:WAVCIS:CSI16:1,2010-04-02T14:30:00Z,29.4012,-89.0355,1.0,27.148,11111222 
WAVCIS,ioos:station:WAVCIS:CSI16:1,2010-04-02T14:45:00Z,29.4012,-89.0355,1.0,28.036,11111222 
WAVCIS,ioos:station:WAVCIS:CSI16:1,2010-04-02T15:00:00Z,29.4012,-89.0355,1.0,28.349,11111222 
WAVCIS,ioos:station:WAVCIS:CSI16:1,2010-04-02T15:15:00Z,29.4012,-89.0355,1.0,29.442,11111222 
WAVCIS,ioos:station:WAVCIS:CSI16:1,2010-04-02T15:30:00Z,29.4012,-89.0355,1.0,30.205,11111222 
WAVCIS,ioos:station:WAVCIS:CSI16:1,2010-04-02T15:45:00Z,29.4012,-89.0355,1.0,30.525,11111222 
WAVCIS,ioos:station:WAVCIS:CSI16:1,2010-04-02T16:00:00Z,29.4012,-89.0355,1.0,30.291,11111222 
WAVCIS,ioos:station:WAVCIS:CSI16:1,2010-04-02T16:15:00Z,29.4012,-89.0355,1.0,29.915,11111222 
WAVCIS,ioos:station:WAVCIS:CSI16:1,2010-04-02T16:30:00Z,29.4012,-89.0355,1.0,29.914,11111222 
WAVCIS,ioos:station:WAVCIS:CSI16:1,2010-04-02T16:45:00Z,29.4012,-89.0355,1.0,30.128,11111222 
WAVCIS,ioos:station:WAVCIS:CSI16:1,2010-04-02T17:00:00Z,29.4012,-89.0355,1.0,30.073,11111222 
WAVCIS,ioos:station:WAVCIS:CSI16:1,2010-04-02T17:15:00Z,29.4012,-89.0355,1.0,29.868,11111222 
WAVCIS,ioos:station:WAVCIS:CSI16:1,2010-04-02T17:30:00Z,29.4012,-89.0355,1.0,29.817,11111222 
WAVCIS,ioos:station:WAVCIS:CSI16:1,2010-04-02T17:45:00Z,29.4012,-89.0355,1.0,30.152,11111222 
WAVCIS,ioos:station:WAVCIS:CSI16:1,2010-04-02T18:00:00Z,29.4012,-89.0355,1.0,30.002,11111222 
WAVCIS,ioos:station:WAVCIS:CSI16:1,2010-04-02T18:15:00Z,29.4012,-89.0355,1.0,30.81,11111222 
WAVCIS,ioos:station:WAVCIS:CSI16:1,2010-04-02T18:30:00Z,29.4012,-89.0355,1.0,30.262,11111222 
WAVCIS,ioos:station:WAVCIS:CSI16:1,2010-04-02T18:45:00Z,29.4012,-89.0355,1.0,30.495,11111222 
WAVCIS,ioos:station:WAVCIS:CSI16:1,2010-04-02T19:00:00Z,29.4012,-89.0355,1.0,31.104,11111222 
WAVCIS,ioos:station:WAVCIS:CSI16:1,2010-04-02T19:15:00Z,29.4012,-89.0355,1.0,31.266,11111222 
WAVCIS,ioos:station:WAVCIS:CSI16:1,2010-04-02T19:30:00Z,29.4012,-89.0355,1.0,31.403,11111222 
WAVCIS,ioos:station:WAVCIS:CSI16:1,2010-04-02T19:45:00Z,29.4012,-89.0355,1.0,31.154,11111222 
WAVCIS,ioos:station:WAVCIS:CSI16:1,2010-04-02T20:00:00Z,29.4012,-89.0355,1.0,31.713,11111222 
WAVCIS,ioos:station:WAVCIS:CSI16:1,2010-04-02T20:15:00Z,29.4012,-89.0355,1.0,31.578,11111222 
WAVCIS,ioos:station:WAVCIS:CSI16:1,2010-04-02T20:30:00Z,29.4012,-89.0355,1.0,31.711,11111222 
WAVCIS,ioos:station:WAVCIS:CSI16:1,2010-04-02T20:45:00Z,29.4012,-89.0355,1.0,31.251,11111222 
WAVCIS,ioos:station:WAVCIS:CSI16:1,2010-04-02T21:00:00Z,29.4012,-89.0355,1.0,31.643,11111222 
WAVCIS,ioos:station:WAVCIS:CSI16:1,2010-04-02T21:15:00Z,29.4012,-89.0355,1.0,31.481,11111222 
WAVCIS,ioos:station:WAVCIS:CSI16:1,2010-04-02T21:30:00Z,29.4012,-89.0355,1.0,31.624,11111222 
WAVCIS,ioos:station:WAVCIS:CSI16:1,2010-04-02T21:45:00Z,29.4012,-89.0355,1.0,31.885,11111222 
WAVCIS,ioos:station:WAVCIS:CSI16:1,2010-04-02T22:00:00Z,29.4012,-89.0355,1.0,31.946,11111222 
WAVCIS,ioos:station:WAVCIS:CSI16:1,2010-04-02T22:15:00Z,29.4012,-89.0355,1.0,32.099,11111222 
WAVCIS,ioos:station:WAVCIS:CSI16:1,2010-04-02T22:30:00Z,29.4012,-89.0355,1.0,32.296,11111222 
WAVCIS,ioos:station:WAVCIS:CSI16:1,2010-04-02T22:45:00Z,29.4012,-89.0355,1.0,31.963,11111222 
WAVCIS,ioos:station:WAVCIS:CSI16:1,2010-04-02T23:00:00Z,29.4012,-89.0355,1.0,32.213,11111222 
WAVCIS,ioos:station:WAVCIS:CSI16:1,2010-04-02T23:15:00Z,29.4012,-89.0355,1.0,32.408,11111222 
WAVCIS,ioos:station:WAVCIS:CSI16:1,2010-04-02T23:30:00Z,29.4012,-89.0355,1.0,32.457,11111222 
WAVCIS,ioos:station:WAVCIS:CSI16:1,2010-04-02T23:45:00Z,29.4012,-89.0355,1.0,32.491,11111222 
WAVCIS,ioos:station:WAVCIS:CSI16:1,2010-04-03T00:00:00Z,29.4012,-89.0355,1.0,32.482,11111222 
WAVCIS,ioos:station:WAVCIS:CSI16:1,2010-04-03T00:15:00Z,29.4012,-89.0355,1.0,32.638,11111222 
WAVCIS,ioos:station:WAVCIS:CSI16:1,2010-04-03T00:30:00Z,29.4012,-89.0355,1.0,32.612,11111222 
WAVCIS,ioos:station:WAVCIS:CSI16:1,2010-04-03T00:45:00Z,29.4012,-89.0355,1.0,32.354,11111222 
WAVCIS,ioos:station:WAVCIS:CSI16:1,2010-04-03T01:00:00Z,29.4012,-89.0355,1.0,32.299,11111222 
WAVCIS,ioos:station:WAVCIS:CSI16:1,2010-04-03T01:15:00Z,29.4012,-89.0355,1.0,32.276,11111222 
WAVCIS,ioos:station:WAVCIS:CSI16:1,2010-04-03T01:30:00Z,29.4012,-89.0355,1.0,32.271,11111222 
WAVCIS,ioos:station:WAVCIS:CSI16:1,2010-04-03T01:45:00Z,29.4012,-89.0355,1.0,32.033,11111222 
WAVCIS,ioos:station:WAVCIS:CSI16:1,2010-04-03T02:00:00Z,29.4012,-89.0355,1.0,32.118,11111222 
WAVCIS,ioos:station:WAVCIS:CSI16:1,2010-04-03T02:15:00Z,29.4012,-89.0355,1.0,30.93,11111222 
WAVCIS,ioos:station:WAVCIS:CSI16:1,2010-04-03T02:30:00Z,29.4012,-89.0355,1.0,30.098,11111222 
WAVCIS,ioos:station:WAVCIS:CSI16:1,2010-04-03T02:45:00Z,29.4012,-89.0355,1.0,29.138,11111222 
WAVCIS,ioos:station:WAVCIS:CSI16:1,2010-04-03T03:00:00Z,29.4012,-89.0355,1.0,28.676,11111222 
WAVCIS,ioos:station:WAVCIS:CSI16:1,2010-04-03T03:15:00Z,29.4012,-89.0355,1.0,28.368,11111222 
WAVCIS,ioos:station:WAVCIS:CSI16:1,2010-04-03T03:30:00Z,29.4012,-89.0355,1.0,28.086,11111222 
WAVCIS,ioos:station:WAVCIS:CSI16:1,2010-04-03T03:45:00Z,29.4012,-89.0355,1.0,28.027,11111222 
WAVCIS,ioos:station:WAVCIS:CSI16:1,2010-04-03T04:00:00Z,29.4012,-89.0355,1.0,28.028,11111222 
WAVCIS,ioos:station:WAVCIS:CSI16:1,2010-04-03T04:15:00Z,29.4012,-89.0355,1.0,27.967,11111222 
WAVCIS,ioos:station:WAVCIS:CSI16:1,2010-04-03T04:30:00Z,29.4012,-89.0355,1.0,27.976,11111222 
WAVCIS,ioos:station:WAVCIS:CSI16:1,2010-04-03T04:45:00Z,29.4012,-89.0355,1.0,28.219,11111222 
WAVCIS,ioos:station:WAVCIS:CSI16:1,2010-04-03T05:00:00Z,29.4012,-89.0355,1.0,28.047,11111222 
WAVCIS,ioos:station:WAVCIS:CSI16:1,2010-04-03T05:15:00Z,29.4012,-89.0355,1.0,28.087,11111222 
WAVCIS,ioos:station:WAVCIS:CSI16:1,2010-04-03T05:30:00Z,29.4012,-89.0355,1.0,28.167,11111222 
WAVCIS,ioos:station:WAVCIS:CSI16:1,2010-04-03T05:45:00Z,29.4012,-89.0355,1.0,28.19,11111222 
WAVCIS,ioos:station:WAVCIS:CSI16:1,2010-04-03T06:00:00Z,29.4012,-89.0355,1.0,28.245,11111222 
WAVCIS,ioos:station:WAVCIS:CSI16:1,2010-04-03T06:15:00Z,29.4012,-89.0355,1.0,28.256,11111222 
WAVCIS,ioos:station:WAVCIS:CSI16:1,2010-04-03T06:30:00Z,29.4012,-89.0355,1.0,28.302,11111222 
WAVCIS,ioos:station:WAVCIS:CSI16:1,2010-04-03T06:45:00Z,29.4012,-89.0355,1.0,28.357,11111222 
WAVCIS,ioos:station:WAVCIS:CSI16:1,2010-04-03T07:00:00Z,29.4012,-89.0355,1.0,28.244,11111222 
WAVCIS,ioos:station:WAVCIS:CSI16:1,2010-04-03T07:15:00Z,29.4012,-89.0355,1.0,28.145,11111222 
WAVCIS,ioos:station:WAVCIS:CSI16:1,2010-04-03T07:30:00Z,29.4012,-89.0355,1.0,28.144,11111222 
WAVCIS,ioos:station:WAVCIS:CSI16:1,2010-04-03T07:45:00Z,29.4012,-89.0355,1.0,28.259,11111222 
WAVCIS,ioos:station:WAVCIS:CSI16:1,2010-04-03T08:00:00Z,29.4012,-89.0355,1.0,28.343,11111222 
WAVCIS,ioos:station:WAVCIS:CSI16:1,2010-04-03T08:15:00Z,29.4012,-89.0355,1.0,28.656,11111222 
WAVCIS,ioos:station:WAVCIS:CSI16:1,2010-04-03T08:30:00Z,29.4012,-89.0355,1.0,28.728,11111222 
WAVCIS,ioos:station:WAVCIS:CSI16:1,2010-04-03T08:45:00Z,29.4012,-89.0355,1.0,28.647,11111222 
WAVCIS,ioos:station:WAVCIS:CSI16:1,2010-04-03T09:00:00Z,29.4012,-89.0355,1.0,28.56,11111222 
WAVCIS,ioos:station:WAVCIS:CSI16:1,2010-04-03T09:15:00Z,29.4012,-89.0355,1.0,28.408,11111222 
WAVCIS,ioos:station:WAVCIS:CSI16:1,2010-04-03T09:30:00Z,29.4012,-89.0355,1.0,26.805,11111222 
WAVCIS,ioos:station:WAVCIS:CSI16:1,2010-04-03T09:45:00Z,29.4012,-89.0355,1.0,27.256,11111222 
WAVCIS,ioos:station:WAVCIS:CSI16:1,2010-04-03T10:00:00Z,29.4012,-89.0355,1.0,26.593,11111222 
WAVCIS,ioos:station:WAVCIS:CSI16:1,2010-04-03T10:15:00Z,29.4012,-89.0355,1.0,27.148,11111222 
WAVCIS,ioos:station:WAVCIS:CSI16:1,2010-04-03T10:30:00Z,29.4012,-89.0355,1.0,27.678,11111222 
WAVCIS,ioos:station:WAVCIS:CSI16:1,2010-04-03T10:45:00Z,29.4012,-89.0355,1.0,25.899,11111222 
WAVCIS,ioos:station:WAVCIS:CSI16:1,2010-04-03T11:00:00Z,29.4012,-89.0355,1.0,26.409,11111222 
WAVCIS,ioos:station:WAVCIS:CSI16:1,2010-04-03T11:15:00Z,29.4012,-89.0355,1.0,27.372,11111222 
WAVCIS,ioos:station:WAVCIS:CSI16:1,2010-04-03T11:30:00Z,29.4012,-89.0355,1.0,26.981,11111222 
WAVCIS,ioos:station:WAVCIS:CSI16:1,2010-04-03T11:45:00Z,29.4012,-89.0355,1.0,28.079,11111222 
WAVCIS,ioos:station:WAVCIS:CSI16:1,2010-04-03T12:00:00Z,29.4012,-89.0355,1.0,28.861,11111222 
WAVCIS,ioos:station:WAVCIS:CSI16:1,2010-04-03T12:15:00Z,29.4012,-89.0355,1.0,28.248,11111222 
WAVCIS,ioos:station:WAVCIS:CSI16:1,2010-04-03T12:30:00Z,29.4012,-89.0355,1.0,27.414,11111222 
WAVCIS,ioos:station:WAVCIS:CSI16:1,2010-04-03T12:45:00Z,29.4012,-89.0355,1.0,29.637,11111222 
WAVCIS,ioos:station:WAVCIS:CSI16:1,2010-04-03T13:00:00Z,29.4012,-89.0355,1.0,31.016,11111222 
WAVCIS,ioos:station:WAVCIS:CSI16:1,2010-04-03T13:15:00Z,29.4012,-89.0355,1.0,30.727,11111222 
WAVCIS,ioos:station:WAVCIS:CSI16:1,2010-04-03T13:30:00Z,29.4012,-89.0355,1.0,30.84,11111222 
WAVCIS,ioos:station:WAVCIS:CSI16:1,2010-04-03T13:45:00Z,29.4012,-89.0355,1.0,32.076,11111222 
WAVCIS,ioos:station:WAVCIS:CSI16:1,2010-04-03T14:00:00Z,29.4012,-89.0355,1.0,31.969,11111222 
WAVCIS,ioos:station:WAVCIS:CSI16:1,2010-04-03T14:15:00Z,29.4012,-89.0355,1.0,31.934,11111222 
WAVCIS,ioos:station:WAVCIS:CSI16:1,2010-04-03T14:30:00Z,29.4012,-89.0355,1.0,32.304,11111222 
WAVCIS,ioos:station:WAVCIS:CSI16:1,2010-04-03T14:45:00Z,29.4012,-89.0355,1.0,32.362,11111222 
WAVCIS,ioos:station:WAVCIS:CSI16:1,2010-04-03T15:00:00Z,29.4012,-89.0355,1.0,32.433,11111222 
WAVCIS,ioos:station:WAVCIS:CSI16:1,2010-04-03T15:15:00Z,29.4012,-89.0355,1.0,32.495,11111222 